Weather in Solnechny-1

Russia / Irkutsk Oblast     52°11′44″N   104°28′11″E
temp.,
°C
wind,
m/s
gust,
m/s
humid.,
%
clouds,
%
prec.,
mm/h
press.,
hPa
HPBL,
m
21 june, mon
mon2123:00+13sse25710 0.0 100380
02:00+11sse227670 0.0 100442
05:00+10sse237715 0.0 100555
08:00+17sse36565 0.0 1004338
11:00+25s343917 0.0 1001902
14:00+29s353224 0.0 10001329
17:00+24s5845100 0.1 1001529
20:00+19se226736 0.2 100256
22 june, tue
tue2223:00+15wnw4992100 0.3 1007551
02:00+13wnw4995100 0.4 1009753
05:00+10wnw4996100 0.3 1011635
08:00+9wnw3896100 0.5 1013581
11:00+9wnw3692100 0.1 1013507
14:00+11wnw2378100 0.1 1012662
17:00+15wnw236796 0.1 1011822
20:00+13wsw1278100 0.1 1011199
23 june, wed
wed2323:00+12wnw1183100 0.0 101111
02:00+11s118836 0.0 101012
05:00+9se119444 0.0 101013
08:00+16se136773 0.0 1008353
11:00+21sse2353100 0.0 1006820
14:00+26sse3442100 0.0 10051112
17:00+27s33418 0.0 10041142
20:00+21sse2269100 0.0 100544
24 june, thu
thu2423:00+15s228656 0.0 100825
02:00+14wsw1497100 0.0 1009109
05:00+13wnw269779 0.0 1009217
08:00+16wnw238290 0.0 1008534
11:00+21nw236271 0.0 1006911
14:00+22nw5462100 0.0 10051163
17:00+20nw5671100 0.4 1005913
20:00+17nw478498 0.6 1007567
25 june, fri
fri2523:00+14w3896100 0.2 1008403
02:00+13wsw2698100 0.5 1008285
05:00+12wsw1298100 0.0 100874
08:00+14w2694100 0.1 1008432
11:00+14wsw1497100 0.6 1008321
14:00+16ene118967 0.6 1008311
17:00+22ne226310 0.0 1006928
20:00+20nne23753 0.0 100789